Flag for Canada Weather past 2 weeks in Saanich, British Columbia, Canada

39 °F

Mostly cloudy.

Feels Like: 36 °F
Forecast: 42 / 48 °F
Wind: 5 mph from West

Location: Victoria Int. Airportb. C.

Current Time: Dec 1, 2015 at 12:10:51 AM

Latest Report: Nov 30, 2015 at 11:00 PM

Visibility: 15 mi

Pressure: 30.10 "Hg

Humidity: 81%

Dew point: 34 °F

Location of SaanichLocation

Historic Weather in Saanich — Graph


Saanich temperature yesterday

Maximum temperature yesterday: 39 °F (at 1:00 PM)
Minimum temperature yesterday: 30 °F (at 1:00 AM)
Average temperature yesterday: 34 °F

Past Weeks' High & Low Weather Summary

High59 °F (Nov 17, 10:00 AM)100% (Nov 15, 11:00 PM)30.59 "Hg (Nov 15, 11:00 PM)
Low27 °F (Nov 28, 12:00 AM)37% (Nov 25, 1:00 PM)29.39 "Hg (Nov 17, 11:49 AM)
Average38 °F85%30.18 "Hg
* Reported Nov 15 11:00 PM — Nov 30 11:00 PM, Saanich, Weather by CustomWeather, © 2015

Note: Actual official high and low records may vary slightly from our data, if they occured in-between our weather recording intervals... More about our weather records


Saanich weather history for previous 24 hours

Time TempWeatherWind HumidityBarometerVisibility
11:00 PM
Mon, Nov 30
39 °FMostly cloudy.5 mph81%30.10 "Hg15 mi
10:00 PM39 °FOvercast.5 mph81%30.10 "Hg15 mi
9:00 PM37 °FOvercast.6 mph87%30.09 "Hg20 mi
8:00 PM36 °FPassing clouds.7 mph93%30.09 "Hg20 mi
7:00 PM36 °FPassing clouds.3 mph87%30.09 "Hg20 mi
6:00 PM37 °FMostly cloudy.3 mph87%30.08 "Hg20 mi
4:00 PM37 °FOvercast.5 mph87%30.07 "Hg20 mi
3:00 PM37 °FPartly sunny.5 mph81%30.06 "Hg20 mi
2:00 PM37 °FMostly cloudy.6 mph81%30.06 "Hg20 mi
1:00 PM39 °FScattered clouds.No wind81%30.07 "Hg15 mi
12:00 PM36 °FPartly sunny.No wind87%30.09 "Hg15 mi
11:00 AM34 °FPartly sunny.6 mph93%30.11 "Hg15 mi
10:00 AM34 °FPartly sunny.7 mph93%30.12 "Hg15 mi
9:00 AM32 °FPartly sunny.3 mph93%30.11 "Hg8 mi
8:00 AM30 °FPartly sunny.7 mph93%30.11 "Hg8 mi
7:00 AM30 °FIce fog.5 mph100%30.11 "Hg5 mi
6:00 AM30 °FIce fog.5 mph100%30.12 "Hg5 mi
5:00 AM30 °FIce fog.6 mph93%30.13 "Hg2 mi
4:00 AM30 °FIce fog.8 mph100%30.14 "Hg1 mi
3:00 AM32 °FIce fog.7 mph93%30.14 "Hg1 mi
2:00 AM32 °FIce fog.7 mph93%30.15 "Hg1 mi
1:00 AM30 °FIce fog.8 mph100%30.15 "Hg1 mi
12:00 AM32 °FIce fog.6 mph93%30.16 "Hg5 mi
Weather by CustomWeather, © 2015

See weather overviewHow to use our weather pages